Weather History for KWLD - January, 2013

Change the Weather History Date:

Thursday, January 24, 2013

  Actual Average Record
Temperature  
Mean Temperature 30 °F -  
Max Temperature 33 °F 43 °F 64 °F (2006)
Min Temperature 26 °F 23 °F 3 °F (2014)
Degree Days  
Heating Degree Days 36    
Moisture  
Dew Point 18 °F    
Average Humidity 71    
Maximum Humidity 93    
Minimum Humidity 49    
Precipitation  
Precipitation 0.00 in - - ()
Sea Level Pressure  
Sea Level Pressure 30.26 in    
Wind  
Wind Speed 12 mph (NE)    
Max Wind Speed 20 mph    
Max Gust Speed 29 mph    
Visibility 9 miles    
Events      
Averages and records for this station are not official NWS values.
T = Trace of Precipitation, MM = Missing Value Source: NWS Daily Summary

Daily Weather History Graph

Daily Weather History Graph

Search for Another Location

Airport or City:

Trip Planner

Search our weather history database for the weather conditions in past years. The results will help you decide how hot, cold, wet, or windy it might be!

Date:

Astronomy

Jan. 24, 2013 Rise Set
Actual Time 7:36 AM CST 5:44 PM CST
Civil Twilight 7:08 AM CST 6:12 PM CST
Nautical Twilight 6:37 AM CST 6:43 PM CST
Astronomical Twilight 6:06 AM CST 7:14 PM CST
Moon 3:48 PM CST (1/24) 5:34 AM CST (1/24)
Length of Visible Light 11h 03m
Length of Day
10h 08m
Waxing Gibbous, 94% of the Moon is Illuminated
Jan 24
Waxing Gibbous
Jan 26
Full
Feb 3
Last Quarter
Feb 10
New
Feb 17
First Quarter

Hourly Weather History & Observations

Time (CST) Temp. Windchill Dew Point Humidity Pressure Visibility Wind Dir Wind Speed Gust Speed Precip Events Conditions
12:54 AM 33.1 °F 21.5 °F 19.9 °F 59% 30.32 in 10.0 mi NE 19.6 mph 28.8 mph N/A   Clear
1:54 AM 30.9 °F 21.2 °F 19.0 °F 61% 30.32 in 10.0 mi ENE 12.7 mph - N/A   Clear
2:54 AM 30.0 °F 19.5 °F 18.0 °F 61% 30.33 in 10.0 mi NE 13.8 mph 20.7 mph N/A   Clear
3:54 AM 28.0 °F 16.5 °F 17.1 °F 63% 30.33 in 10.0 mi NE 15.0 mph 23.0 mph N/A   Clear
4:54 AM 27.0 °F 15.6 °F 16.0 °F 63% 30.33 in 10.0 mi NE 13.8 mph 21.9 mph N/A   Scattered Clouds
5:54 AM 27.0 °F 14.7 °F 15.1 °F 61% 30.34 in 10.0 mi ENE 16.1 mph 23.0 mph N/A   Overcast
6:54 AM 27.0 °F 16.1 °F 14.0 °F 58% 30.34 in 10.0 mi ENE 12.7 mph 23.0 mph N/A   Overcast
7:44 AM 26.6 °F 14.7 °F 12.2 °F 55% 30.31 in 10.0 mi ENE 15.0 mph 23.0 mph N/A   Overcast
7:54 AM 27.0 °F 15.6 °F 12.9 °F 56% 30.34 in 10.0 mi ENE 13.8 mph 23.0 mph N/A   Overcast
8:24 AM 26.6 °F 16.2 °F 12.2 °F 55% 30.32 in 10.0 mi ENE 11.5 mph 20.7 mph N/A   Overcast
8:54 AM 27.0 °F 15.6 °F 12.9 °F 56% 30.36 in 10.0 mi ENE 13.8 mph 19.6 mph N/A   Overcast
9:38 AM 26.6 °F 15.2 °F 12.2 °F 55% 30.33 in 10.0 mi ENE 13.8 mph 21.9 mph N/A   Overcast
9:54 AM 27.0 °F 15.2 °F 12.9 °F 56% 30.35 in 10.0 mi ENE 15.0 mph - N/A   Overcast
10:54 AM 28.0 °F 16.5 °F 12.0 °F 51% 30.36 in 10.0 mi ENE 15.0 mph - N/A   Mostly Cloudy
11:14 AM 28.4 °F 18.0 °F 12.2 °F 51% 30.33 in 10.0 mi NE 12.7 mph - N/A   Overcast
11:54 AM 28.9 °F 18.2 °F 12.0 °F 49% 30.35 in 10.0 mi ENE 13.8 mph - N/A   Overcast
12:54 PM 28.0 °F 18.6 °F 15.1 °F 58% 30.32 in 10.0 mi East 10.4 mph - N/A   Overcast
1:54 PM 27.0 °F 18.0 °F 16.0 °F 63% 30.29 in 10.0 mi ENE 9.2 mph - N/A   Overcast
2:54 PM 27.0 °F 18.0 °F 17.1 °F 66% 30.26 in 10.0 mi East 9.2 mph - N/A   Overcast
3:54 PM 27.0 °F 19.5 °F 18.0 °F 69% 30.22 in 10.0 mi East 6.9 mph - N/A   Overcast
4:54 PM 26.1 °F 19.4 °F 21.0 °F 81% 30.22 in 5.0 mi ENE 5.8 mph - N/A   Haze
5:26 PM 26.6 °F 18.2 °F 23.0 °F 86% 30.13 in 7.0 mi East 8.1 mph - N/A   Overcast
5:54 PM 26.1 °F 21.9 °F 21.9 °F 84% 30.22 in 10.0 mi NE 3.5 mph - N/A   Overcast
6:14 PM 26.6 °F 22.6 °F 21.2 °F 80% 30.19 in 10.0 mi ENE 3.5 mph - N/A   Overcast
6:54 PM 26.1 °F 19.4 °F 21.9 °F 84% 30.23 in 9.0 mi NNE 5.8 mph - N/A   Overcast
7:08 PM 26.6 °F 21.2 °F 21.2 °F 80% 30.18 in 8.0 mi NE 4.6 mph - N/A   Overcast
7:54 PM 26.1 °F - 21.9 °F 84% 30.22 in 10.0 mi Calm Calm - N/A   Overcast
8:54 PM 27.0 °F 21.6 °F 21.9 °F 81% 30.21 in 10.0 mi North 4.6 mph - N/A   Overcast
9:54 PM 26.1 °F 19.4 °F 23.0 °F 88% 30.23 in 7.0 mi NNW 5.8 mph - N/A   Overcast
10:20 PM 26.6 °F 22.6 °F 24.8 °F 93% 30.17 in 5.0 mi NNW 3.5 mph - N/A   Overcast
10:36 PM 26.6 °F 19.1 °F 24.8 °F 93% 30.17 in 7.0 mi NNW 6.9 mph - N/A   Overcast
10:46 PM 26.6 °F 19.1 °F 24.8 °F 93% 30.17 in 8.0 mi NNW 6.9 mph - N/A   Overcast
10:54 PM 26.1 °F 18.4 °F 24.1 °F 92% 30.21 in 8.0 mi North 6.9 mph - N/A   Overcast
11:28 PM 26.6 °F 22.6 °F 24.8 °F 93% 30.17 in 9.0 mi North 3.5 mph - N/A   Overcast
11:45 PM 26.6 °F 19.1 °F 24.8 °F 93% 30.16 in 8.0 mi NNW 6.9 mph - N/A   Overcast
11:54 PM 26.1 °F 18.4 °F 24.1 °F 92% 30.21 in 9.0 mi NNW 6.9 mph - N/A   Overcast